sat.trackr.live / text

‹ back to catalog

FLYLAB1

NORAD 68472 · 2026-067BJ

PAYLOAD ACTIVE UNKNOWN

§ Identity

Operator
Country
FR
Launch date
2026-03-30
Launch site
AFWTR
Launch vehicle
Mass (kg)
RCS (m²)

External: N2YO · Heavens-Above · Gunter

§ Orbital elements

Epoch: 2026-09-16T13:03:21.485088Z

Period
96.51 min
Inclination
97.7731°
Eccentricity
0.0005277
Mean motion
14.92051137 rev/d
Perigee alt
587.9 km
Apogee alt
595.2 km
Semi-major
6,969.7 km
B*
9.1184e-5
RAAN
216.3281°
Arg perigee
98.5027°
Mean anomaly
261.6790°
Rev number
2,534

§ Raw data

FLYLAB11 68472U 26067BJ  26259.54399867  .00000869  00000+0  91184-4 0  99922 68472  97.7731 216.3281 0005277  98.5027 261.6790 14.92051137 25346

JSON: /api/v1/satellites/68472 · /tle

For live sub-satellite position, see the globe view (requires WebGL).

§ Visibility from observer

Set your observer location to see the next 7 days of passes ≥ 10°. The values pass through the URL so the page stays shareable.

No JS? Fill the form by hand. The geolocation button needs JavaScript.